TimeADT,TemperatureF,Dew PointF,Humidity,Sea Level PressureIn,VisibilityMPH,Wind Direction,Wind SpeedMPH,Gust SpeedMPH,PrecipitationIn,Events,Conditions,WindDirDegrees,DateUTC
12:00 AM,64.4,59.0,83,29.95,15.0,SSE,13.8,21.9,N/A,,Overcast,160,2013-07-11 03:00:00
1:00 AM,64.4,60.8,88,29.94,15.0,South,11.5,18.4,N/A,,Overcast,180,2013-07-11 04:00:00
2:00 AM,62.6,60.8,94,29.92,15.0,South,12.7,-,N/A,,Overcast,170,2013-07-11 05:00:00
3:00 AM,63,61,92,29.90,15,SSE,11.5,,,,Overcast,160,2013-07-11 06:00:00
3:00 AM,62.6,60.8,94,29.90,15.0,SSE,11.5,-,N/A,,Overcast,160,2013-07-11 06:00:00
4:00 AM,64.4,62.6,94,29.88,15.0,SSE,12.7,-,N/A,,Overcast,160,2013-07-11 07:00:00
5:00 AM,64.4,62.6,94,29.86,15.0,SSE,16.1,-,N/A,,Overcast,160,2013-07-11 08:00:00
6:00 AM,66.2,64.4,94,29.85,10.0,SSE,16.1,-,N/A,,Overcast,160,2013-07-11 09:00:00
7:00 AM,66.2,64.4,94,29.85,15.0,SSE,16.1,25.3,N/A,,Overcast,160,2013-07-11 10:00:00
7:27 AM,68.0,66.2,94,29.84,15.0,South,17.3,23.0,N/A,,Overcast,170,2013-07-11 10:27:00
8:00 AM,69.8,66.2,88,29.84,15.0,South,16.1,23.0,N/A,,Mostly Cloudy,180,2013-07-11 11:00:00
8:17 AM,69.8,66.2,88,29.85,15.0,South,18.4,26.5,N/A,,Overcast,180,2013-07-11 11:17:00
9:00 AM,70,67,85,29.84,15,South,17.3,,,,Overcast,170,2013-07-11 12:00:00
9:00 AM,69.8,66.2,88,29.84,15.0,SSE,18.4,-,N/A,,Overcast,160,2013-07-11 12:00:00
9:14 AM,69.8,66.2,88,29.84,15.0,SSE,16.1,-,N/A,Rain,Light Rain Showers,160,2013-07-11 12:14:00
9:37 AM,69.8,66.2,88,29.83,6.0,South,13.8,19.6,N/A,Rain,Heavy Rain Showers,170,2013-07-11 12:37:00
9:50 AM,68.0,66.2,94,29.83,6.0,SSE,16.1,-,N/A,Rain,Rain Showers,160,2013-07-11 12:50:00
10:00 AM,68.0,66.2,94,29.82,5.0,SSE,13.8,-,N/A,Rain,Light Rain Showers,160,2013-07-11 13:00:00
10:42 AM,69.8,68.0,94,29.81,5.0,South,15.0,21.9,N/A,Rain,Light Rain Showers,190,2013-07-11 13:42:00
11:00 AM,69.8,68.0,94,29.81,7.0,South,16.1,23.0,N/A,Rain,Light Rain Showers,190,2013-07-11 14:00:00
11:08 AM,69.8,68.0,94,29.81,10.0,South,13.8,20.7,N/A,Rain,Light Rain Showers,190,2013-07-11 14:08:00
12:00 PM,69.8,68.0,94,29.81,15.0,South,16.1,-,N/A,,Overcast,190,2013-07-11 15:00:00
1:00 PM,71.6,66.2,83,29.81,15.0,South,17.3,24.2,N/A,,Mostly Cloudy,180,2013-07-11 16:00:00
1:44 PM,71.6,66.2,83,29.81,15.0,South,15.0,-,N/A,,Overcast,180,2013-07-11 16:44:00
2:00 PM,69.8,66.2,88,29.81,15.0,South,16.1,-,N/A,,Overcast,190,2013-07-11 17:00:00
3:00 PM,73,70,87,29.80,15,South,13.8,,,,Partly Cloudy,180,2013-07-11 18:00:00
3:00 PM,73.4,69.8,88,29.80,15.0,South,13.8,-,N/A,,Overcast,180,2013-07-11 18:00:00
4:00 PM,75.2,69.8,83,29.81,15.0,South,12.7,-,N/A,,Overcast,190,2013-07-11 19:00:00
5:00 PM,75.2,69.8,83,29.81,15.0,SSW,10.4,-,N/A,,Overcast,200,2013-07-11 20:00:00
5:23 PM,77.0,71.6,83,29.80,15.0,SW,8.1,-,N/A,,Mostly Cloudy,220,2013-07-11 20:23:00
6:00 PM,77.0,71.6,83,29.81,15.0,SSW,9.2,-,N/A,,Mostly Cloudy,210,2013-07-11 21:00:00
7:00 PM,77.0,71.6,83,29.82,15.0,SSW,10.4,-,N/A,,Mostly Cloudy,210,2013-07-11 22:00:00
8:00 PM,75.2,71.6,89,29.83,15.0,South,8.1,-,N/A,,Mostly Cloudy,180,2013-07-11 23:00:00
9:00 PM,74,70,83,29.84,15,SW,9.2,,,,Scattered Clouds,230,2013-07-12 00:00:00
9:00 PM,73.4,69.8,88,29.84,15.0,SW,9.2,-,N/A,,Mostly Cloudy,220,2013-07-12 00:00:00
10:00 PM,71.6,69.8,94,29.86,15.0,WSW,8.1,-,N/A,,Mostly Cloudy,240,2013-07-12 01:00:00
11:00 PM,71.6,68.0,88,29.87,15.0,WSW,11.5,-,N/A,,Mostly Cloudy,240,2013-07-12 02:00:00